When you browse on this site, cookies collect data to enhance your experience and personalize the content and advertising you see.
Visit our Privacy Policy to learn more. By continuing to use the site, you agree to this use of cookies and data.
  • In Latvia
  • List of Countries
  • For 7 days
  • Water Temperature
  • Satellite Maps
  • Weather Map
  • Weather Widgets
  • user-avatar
    Login

    Hourly Weather Igls

    Today, 16 November, Friday

    Time Temperature Precipitation Wind Pressure Humidity
    00:00 +6°C° 0 mm 1 mps 689 mmHg 49%
    01:00 +6°C° 0 mm 1 mps 689 mmHg 47%
    02:00 +6°C° 0 mm 1 mps 689 mmHg 47%
    03:00 +5°C° 0 mm 1 mps 689 mmHg 47%
    04:00 +5°C° 0 mm 1 mps 689 mmHg 47%
    05:00 +5°C° 0 mm 1 mps 689 mmHg 48%
    06:00 +5°C° 0 mm 1 mps 689 mmHg 48%
    07:00 +4°C° 0 mm 1 mps 689 mmHg 49%
    08:00 +6°C° 0 mm 1 mps 690 mmHg 46%
    09:00 +8°C° 0 mm 1 mps 690 mmHg 43%
    10:00 +10°C° 0 mm 1 mps 690 mmHg 40%
    11:00 +10°C° 0 mm 1 mps 690 mmHg 40%
    12:00 +11°C° 0 mm 1 mps 690 mmHg 40%
    13:00 +12°C° 0 mm 2 mps 690 mmHg 40%
    14:00 +10°C° 0 mm 1 mps 689 mmHg 49%
    15:00 +9°C° 0 mm 1 mps 689 mmHg 58%
    16:00 +7°C° 0 mm 1 mps 689 mmHg 67%
    17:00 +6°C° 0 mm 1 mps 689 mmHg 73%
    18:00 +5°C° 0 mm 1 mps 689 mmHg 79%
    19:00 +3°C° 0 mm 1 mps 689 mmHg 84%
    20:00 +3°C° 0 mm 1 mps 689 mmHg 85%
    21:00 +2°C° 0 mm 2 mps 689 mmHg 85%
    22:00 +2°C° 0 mm 2 mps 689 mmHg 85%
    23:00 +2°C° 0 mm 2 mps 689 mmHg 86%

    Tomorrow, 17 November, Saturday

    Time Temperature Precipitation Wind Pressure Humidity
    00:00 +2°C° 0 mm 2 mps 689 mmHg 86%
    01:00 +2°C° 0 mm 2 mps 689 mmHg 87%
    02:00 +2°C° 0 mm 2 mps 689 mmHg 87%
    03:00 +2°C° 0 mm 2 mps 688 mmHg 87%
    04:00 +2°C° 0 mm 2 mps 688 mmHg 86%
    05:00 +1°C° 0 mm 2 mps 688 mmHg 85%
    06:00 +1°C° 0 mm 2 mps 688 mmHg 83%
    07:00 +1°C° 0 mm 2 mps 688 mmHg 82%
    08:00 +3°C° 0 mm 2 mps 688 mmHg 73%
    09:00 +4°C° 0 mm 2 mps 689 mmHg 64%
    10:00 +5°C° 0 mm 2 mps 689 mmHg 55%
    11:00 +6°C° 0 mm 2 mps 689 mmHg 50%
    12:00 +7°C° 0 mm 2 mps 689 mmHg 45%
    13:00 +9°C° 0 mm 1 mps 688 mmHg 40%
    14:00 +8°C° 0 mm 1 mps 688 mmHg 46%
    15:00 +7°C° 0 mm 1 mps 688 mmHg 52%
    16:00 +6°C° 0 mm 1 mps 687 mmHg 57%
    17:00 +5°C° 0 mm 1 mps 687 mmHg 63%
    18:00 +3°C° 0 mm 1 mps 687 mmHg 68%
    19:00 +2°C° 0 mm 1 mps 687 mmHg 74%
    20:00 +2°C° 0 mm 1 mps 687 mmHg 73%
    21:00 +2°C° 0 mm 1 mps 687 mmHg 72%
    22:00 -1°C° 0 mm 2 mps 687 mmHg 71%
    23:00 -1°C° 0 mm 2 mps 687 mmHg 70%

    Day after tomorrow, 18 November, Sunday

    Time Temperature Precipitation Wind Pressure Humidity
    00:00 -1°C° 0 mm 2 mps 687 mmHg 69%
    01:00 -1°C° 0 mm 2 mps 687 mmHg 68%
    02:00 -1°C° 0 mm 2 mps 687 mmHg 68%
    03:00 -1°C° 0 mm 2 mps 687 mmHg 68%
    04:00 -1°C° 0 mm 2 mps 687 mmHg 68%
    05:00 -1°C° 0 mm 2 mps 687 mmHg 67%
    06:00 -1°C° 0 mm 2 mps 687 mmHg 67%
    07:00 -1°C° 0 mm 2 mps 687 mmHg 66%
    08:00 +2°C° 0 mm 1 mps 687 mmHg 59%
    09:00 +4°C° 0 mm 1 mps 687 mmHg 53%
    10:00 +6°C° 0 mm 1 mps 687 mmHg 46%
    11:00 +6°C° 0 mm 1 mps 687 mmHg 44%
    12:00 +7°C° 0 mm 1 mps 687 mmHg 41%
    13:00 +8°C° 0 mm 1 mps 686 mmHg 39%
    14:00 +7°C° 0 mm 1 mps 686 mmHg 45%
    15:00 +6°C° 0 mm 1 mps 685 mmHg 51%
    16:00 +5°C° 0 mm 1 mps 685 mmHg 58%
    17:00 +3°C° 0 mm 1 mps 685 mmHg 63%
    18:00 +2°C° 0 mm 1 mps 684 mmHg 69%
    19:00 +1°C° 0 mm 1 mps 684 mmHg 75%
    20:00 +1°C° 0 mm 1 mps 684 mmHg 77%
    21:00 +1°C° 0 mm 1 mps 684 mmHg 78%
    22:00 +1°C° 0 mm 1 mps 684 mmHg 80%
    23:00 0°C° 0 mm 1 mps 684 mmHg 80%

    19 November, Monday

    Time Temperature Precipitation Wind Pressure Humidity
    00:00 0°C° 0 mm 1 mps 684 mmHg 80%
    01:00 0°C° 0 mm 1 mps 683 mmHg 81%
    02:00 0°C° 0 mm 1 mps 683 mmHg 82%
    03:00 0°C° 0 mm 1 mps 683 mmHg 83%
    04:00 -1°C° 0 mm 1 mps 682 mmHg 84%
    05:00 -1°C° 0 mm 1 mps 682 mmHg 85%
    06:00 -1°C° 0 mm 1 mps 682 mmHg 87%
    07:00 -1°C° 0 mm 1 mps 682 mmHg 88%
    08:00 0°C° 0 mm 1 mps 682 mmHg 83%
    09:00 +1°C° 0 mm 1 mps 681 mmHg 78%
    10:00 +1°C° 0 mm 2 mps 681 mmHg 73%
    11:00 +1°C° 0 mm 2 mps 681 mmHg 70%
    12:00 +2°C° 0 mm 2 mps 681 mmHg 66%
    13:00 +2°C° 0 mm 2 mps 680 mmHg 63%
    14:00 +1°C° 0.1 mm 2 mps 680 mmHg 67%
    15:00 +1°C° 0.1 mm 2 mps 680 mmHg 71%
    16:00 -1°C° 0.1 mm 2 mps 679 mmHg 75%
    17:00 -1°C° 0.1 mm 2 mps 679 mmHg 79%
    18:00 -2°C° 0.1 mm 2 mps 679 mmHg 83%
    19:00 -3°C° 0.1 mm 2 mps 679 mmHg 88%
    20:00 -1°C° 0.1 mm 1 mps 679 mmHg 88%
    21:00 -1°C° 0.1 mm 1 mps 679 mmHg 88%
    22:00 -1°C° 0.1 mm 1 mps 679 mmHg 88%
    23:00 -1°C° 0.1 mm 1 mps 679 mmHg 88%

    20 November, Tuesday

    Time Temperature Precipitation Wind Pressure Humidity
    00:00 -1°C° 0.1 mm 1 mps 679 mmHg 87%
    01:00 -2°C° 0.1 mm 1 mps 679 mmHg 87%
    02:00 -2°C° 0.1 mm 1 mps 678 mmHg 87%
    03:00 -2°C° 0.1 mm 1 mps 678 mmHg 87%
    04:00 -2°C° 0.1 mm 1 mps 678 mmHg 87%
    05:00 -2°C° 0.1 mm 1 mps 678 mmHg 87%
    06:00 -2°C° 0.1 mm 1 mps 678 mmHg 87%
    07:00 -2°C° 0.1 mm 1 mps 677 mmHg 88%
    08:00 -2°C° 0.1 mm 1 mps 677 mmHg 83%
    09:00 -1°C° 0.1 mm 1 mps 677 mmHg 78%
    10:00 0°C° 0.1 mm 1 mps 677 mmHg 74%
    11:00 -2°C° 0.1 mm 2 mps 677 mmHg 71%
    12:00 -2°C° 0.1 mm 2 mps 676 mmHg 69%
    13:00 -1°C° 0.1 mm 2 mps 676 mmHg 67%
    14:00 -2°C° 0.1 mm 2 mps 675 mmHg 71%
    15:00 -2°C° 0.1 mm 2 mps 675 mmHg 76%
    16:00 -3°C° 0.1 mm 2 mps 675 mmHg 80%
    17:00 -3°C° 0.2 mm 2 mps 675 mmHg 83%
    18:00 -4°C° 0.2 mm 2 mps 675 mmHg 85%
    19:00 -4°C° 0.2 mm 2 mps 675 mmHg 88%
    20:00 -4°C° 0.2 mm 2 mps 675 mmHg 88%
    21:00 -4°C° 0.2 mm 2 mps 675 mmHg 88%
    22:00 -4°C° 0.2 mm 2 mps 675 mmHg 89%
    23:00 -4°C° 0.3 mm 2 mps 675 mmHg 89%

    21 November, Wednesday

    Time Temperature Precipitation Wind Pressure Humidity
    00:00 -5°C° 0.3 mm 2 mps 675 mmHg 89%
    01:00 -5°C° 0.3 mm 2 mps 674 mmHg 89%
    02:00 -5°C° 0.4 mm 2 mps 674 mmHg 89%
    03:00 -5°C° 0.4 mm 2 mps 674 mmHg 90%
    04:00 -5°C° 0.4 mm 2 mps 674 mmHg 90%
    05:00 -5°C° 0.4 mm 2 mps 674 mmHg 90%
    06:00 -5°C° 0.4 mm 2 mps 674 mmHg 90%
    07:00 -5°C° 0.4 mm 2 mps 674 mmHg 90%
    08:00 -5°C° 0.4 mm 2 mps 675 mmHg 89%
    09:00 -5°C° 0.4 mm 2 mps 675 mmHg 87%
    10:00 -4°C° 0.4 mm 2 mps 675 mmHg 86%
    11:00 -4°C° 0.3 mm 2 mps 675 mmHg 84%
    12:00 -4°C° 0.3 mm 2 mps 675 mmHg 82%
    13:00 -3°C° 0.3 mm 2 mps 675 mmHg 80%
    14:00 -4°C° 0.3 mm 2 mps 676 mmHg 82%
    15:00 -4°C° 0.3 mm 2 mps 676 mmHg 84%
    16:00 -4°C° 0.3 mm 2 mps 676 mmHg 87%
    17:00 -5°C° 0.3 mm 2 mps 677 mmHg 88%
    18:00 -5°C° 0.3 mm 2 mps 677 mmHg 90%
    19:00 -5°C° 0.3 mm 2 mps 677 mmHg 91%
    20:00 -6°C° 0.2 mm 2 mps 678 mmHg 91%
    21:00 -6°C° 0.2 mm 2 mps 678 mmHg 91%
    22:00 -6°C° 0.2 mm 2 mps 678 mmHg 91%
    23:00 -6°C° 0.2 mm 2 mps 678 mmHg 91%
    Show more